Back to catalog

ELECTRON KICK STAGE R/B

AliveSSO
NORAD 63306·ROCKET BODY·🇺🇸 United States

Launched Mar 18, 2025 from Rocket Lab Launch Complex 1

Loading…

Next Passes (next 24 hours)

TLE

FreshSource: Space-Track

Epoch: Sep 14, 2026, 09:53 UTC

1 63306U 25056G   26257.41207341  .00001898  00000-0  20377-3 0  9998
2 63306  98.0386  34.0930 0042648  52.9892 307.5215 14.89186031 81050

Track ELECTRON KICK STAGE R/B in real time with AllMySat

Download on the App Store